Showing default

COSMOS 86, 1584

Orbit data source: Space-Track

COSMOS 86, 1584 is a payload satellite owned by OKB-10 (CIS) in LEO that was launched on Sat, 18 Sep 1965 UTC via a KOSMOS 65S3 launch vehicle from the Tyuratam Missile And Space Complex (TTMTR). Payload-class satellites include a variety of spacecraft equipped with specific instruments for various scientific and technological missions. These include communications satellites like Starlink; space stations such as the ISS; scientific satellites like the Hubble; Earth observation satellites from companies like Planet Labs, Umbra, and HawkEye 360; GPS; miniature CubeSats for education and research; and military/defense satellites.

Loading next visibility...
Identifier
1584, 1965-073A
Orbit
LEO
Country
Flag of CISCIS
Related business
Manufacturer
OKB-10
Mission
Spacecraft
Bus & Motor
STRELA-1 11F610, Unknown motor
Mass
50 kg wet, 50 kg dry
Launch date (UTC)
1965-09-18 (61 years ago)
Launch vehicle
KOSMOS 65S3
Launch site
Tyuratam Missile And Space Complex (TTMTR)
Object type
Payload
Rocket body
Debris
Shape & HBR
Unknown
Radar Cross Section
Medium (>0.1 m² and <1 m²)

Expand to show TLE details & history
Last TLE update: 7 hours ago

TLE from 7 hours ago
0 COSMOS 86
1  1584U 65073A   26119.76569595 -.00000085  00000-0  60401-4 0  9999
2  1584  56.0588 271.3260 0212558 217.4612 249.3206 12.51919693771387
Epoch: 2026-04-29T18:22Z
TLE epoch observation values (Epoch: 2026-04-29T18:22:36.130Z)
Latitude
53.55507°
Longitude
-107.13003°
Altitude
1,525.393 km
Speed
7.08 km/s
True Right ascension
01h 44m 58s
True Declination
53° 24' 24"
Sunlit
Object was in daylight at epoch
Visualization orbit readout
Latitude
Unknown
Longitude
Unknown
Altitude
Unknown
Speed
Unknown
Apparent Right ascension
Unknown
Apparent Declination
Unknown
Sunlit
N/A
Visualization observer readout
Local Sidereal Time
08:37:15
Azimuth
Unknown
Elevation
Unknown
Doppler factor
Unknown
Orbital elements
Apogee altitude
1,622.825 km
Perigee altitude
1,289.771 km
Semi-major axis
7,834.435 km
Eccentricity
0.02126
Inclination
56.0588°
RAAN
271.326°
Arg. of periapsis
217.4612°
True anomaly
247.06357°
Mean anomaly
249.3206°
Eccentric anomaly
248.18991°
Mean motion
3.12991 °/min
Orbital period
115.02 mins
BSTAR
0.000060401
Loading maneuver chart data...
Computing Atmospheric mass density...
Loading historical data...
Loading historical data...
Loading historical data...
Loading historical data...
Loading historical data...
Loading historical data...
Loading historical data...

Documentation

Showing up to 5 results
|